Location: Unspecified
(64.9000°N, 0.0000°E)
Time: 09:30:49
(UTC+00:00)

A-11 Canister half - Pass Details

Date: 17 June 2019
Orbit: 1526 x 1683 km, 47.3° (Epoch: 16 July)

Event Time Altitude Azimuth Distance (km) Brightness Sun altitude
Rises 06:39:50 0° 214° (SW) 4,696 11.2 25.2°
Reaches altitude 10° 06:43:49 10° 200° (SSW) 3,701 10.9 25.6°
Maximum altitude 06:50:11 21° 156° (SSE) 2,913 11.0 26.3°
Drops below altitude 10° 06:56:32 10° 112° (ESE) 3,701 12.4 26.9°
Sets 07:00:30 0° 98° (E) 4,695 12.8 27.4°
